Time,TemperatureF,DewpointF,PressureIn,WindDirection,WindDirectionDegrees,WindSpeedMPH,WindSpeedGustMPH,Humidity,HourlyPrecipIn,Conditions,Clouds,dailyrainin,SoftwareType,DateUTC
2013-04-15 00:13:00,70.2,47.3,29.46,SSE,157,4.2,-999.0,44,-99.99,,,0.00,Acu-Link.com,2013-04-15 05:13:00,
2013-04-15 00:29:00,70.0,48.8,29.47,SSE,157,3.7,-999.0,47,-99.99,,,0.00,Acu-Link.com,2013-04-15 05:29:00,
2013-04-15 00:44:00,69.6,49.6,29.47,SE,135,3.7,-999.0,49,-99.99,,,0.00,Acu-Link.com,2013-04-15 05:44:00,
2013-04-15 00:59:00,69.4,49.9,29.47,SSE,157,4.2,-999.0,50,-99.99,,,0.00,Acu-Link.com,2013-04-15 05:59:00,
2013-04-15 01:15:00,69.4,50.5,29.48,SSE,157,3.7,-999.0,51,-99.99,,,0.00,Acu-Link.com,2013-04-15 06:15:00,
2013-04-15 01:30:00,69.3,50.9,29.47,SE,135,3.2,-999.0,52,-99.99,,,0.00,Acu-Link.com,2013-04-15 06:30:00,
2013-04-15 01:45:00,69.1,51.2,29.47,SSE,157,3.7,-999.0,53,-99.99,,,0.00,Acu-Link.com,2013-04-15 06:45:00,
2013-04-15 02:00:00,68.9,51.6,29.47,SSE,157,3.7,-999.0,54,-99.99,,,0.00,Acu-Link.com,2013-04-15 07:00:00,
2013-04-15 02:46:00,68.2,52.9,29.48,SSE,157,3.7,-999.0,58,-99.99,,,0.00,Acu-Link.com,2013-04-15 07:46:00,
2013-04-15 03:02:00,67.3,52.9,29.48,SSE,157,3.7,-999.0,60,-99.99,,,0.00,Acu-Link.com,2013-04-15 08:02:00,
2013-04-15 03:17:00,66.9,53.4,29.48,SE,135,3.7,-999.0,62,-99.99,,,0.00,Acu-Link.com,2013-04-15 08:17:00,
2013-04-15 03:32:00,66.7,53.3,29.48,SSE,157,2.7,-999.0,62,-99.99,,,0.00,Acu-Link.com,2013-04-15 08:32:00,
2013-04-15 03:47:00,66.2,54.1,29.48,SSE,157,2.7,-999.0,65,-99.99,,,0.00,Acu-Link.com,2013-04-15 08:47:00,
2013-04-15 04:02:00,65.3,53.6,29.49,SSE,157,2.2,-999.0,66,-99.99,,,0.00,Acu-Link.com,2013-04-15 09:02:00,
2013-04-15 04:17:00,64.6,54.2,29.49,SSE,157,3.2,-999.0,69,-99.99,,,0.00,Acu-Link.com,2013-04-15 09:17:00,
2013-04-15 04:33:00,64.4,54.8,29.49,SSE,157,3.7,-999.0,71,-99.99,,,0.00,Acu-Link.com,2013-04-15 09:33:00,
2013-04-15 04:48:00,65.3,56.4,29.50,SSE,157,3.7,-999.0,73,-99.99,,,0.00,Acu-Link.com,2013-04-15 09:48:00,
2013-04-15 05:03:00,65.7,57.9,29.50,SSE,157,2.7,-999.0,76,-99.99,,,0.00,Acu-Link.com,2013-04-15 10:03:00,
2013-04-15 05:18:00,65.8,59.1,29.50,SSE,157,2.2,-999.0,79,-99.99,,,0.00,Acu-Link.com,2013-04-15 10:18:00,
2013-04-15 05:34:00,66.0,59.6,29.50,SSE,157,3.7,-999.0,80,-99.99,,,0.00,Acu-Link.com,2013-04-15 10:34:00,
2013-04-15 05:49:00,66.2,60.5,29.51,SSE,157,2.7,-999.0,82,-99.99,,,0.00,Acu-Link.com,2013-04-15 10:49:00,
2013-04-15 06:04:00,66.0,61.0,29.52,SSE,157,2.7,-999.0,84,-99.99,,,0.00,Acu-Link.com,2013-04-15 11:04:00,
2013-04-15 06:20:00,66.2,61.2,29.51,SE,135,3.2,-999.0,84,-99.99,,,0.00,Acu-Link.com,2013-04-15 11:20:00,
2013-04-15 06:35:00,64.9,60.6,29.52,ESE,112,2.2,-999.0,86,-99.99,,,0.00,Acu-Link.com,2013-04-15 11:35:00,
2013-04-15 06:50:00,64.2,60.6,29.52,SE,135,2.7,-999.0,88,-99.99,,,0.00,Acu-Link.com,2013-04-15 11:50:00,
2013-04-15 07:05:00,64.2,61.2,29.53,SSE,157,3.7,-999.0,90,-99.99,,,0.00,Acu-Link.com,2013-04-15 12:05:00,
2013-04-15 07:21:00,64.4,61.4,29.54,SE,135,2.7,-999.0,90,-99.99,,,0.00,Acu-Link.com,2013-04-15 12:21:00,
2013-04-15 07:51:00,66.2,62.9,29.55,SE,135,2.7,-999.0,89,-99.99,,,0.00,Acu-Link.com,2013-04-15 12:51:00,
2013-04-15 08:22:00,70.5,65.1,29.56,SSE,157,3.2,-999.0,83,-99.99,,,0.00,Acu-Link.com,2013-04-15 13:22:00,
2013-04-15 08:37:00,72.1,65.6,29.56,South,180,1.1,-999.0,80,-99.99,,,0.00,Acu-Link.com,2013-04-15 13:37:00,
2013-04-15 08:52:00,73.8,65.7,29.57,SSE,157,5.3,-999.0,76,-99.99,,,0.00,Acu-Link.com,2013-04-15 13:52:00,
2013-04-15 09:07:00,75.0,66.1,29.57,South,180,3.7,-999.0,74,-99.99,,,0.00,Acu-Link.com,2013-04-15 14:07:00,
2013-04-15 09:23:00,76.3,66.2,29.57,SW,225,3.7,-999.0,71,-99.99,,,0.00,Acu-Link.com,2013-04-15 14:23:00,
2013-04-15 09:38:00,76.8,65.8,29.57,South,180,4.2,-999.0,69,-99.99,,,0.00,Acu-Link.com,2013-04-15 14:38:00,
2013-04-15 09:53:00,78.4,65.2,29.57,South,180,4.2,-999.0,64,-99.99,,,0.00,Acu-Link.com,2013-04-15 14:53:00,
2013-04-15 10:08:00,80.1,64.9,29.57,SW,225,3.7,-999.0,60,-99.99,,,0.00,Acu-Link.com,2013-04-15 15:08:00,
2013-04-15 10:40:00,80.4,62.7,29.59,South,180,5.8,-999.0,55,-99.99,,,0.00,Acu-Link.com,2013-04-15 15:40:00,
2013-04-15 10:55:00,81.0,61.7,29.58,SSW,202,6.8,-999.0,52,-99.99,,,0.00,Acu-Link.com,2013-04-15 15:55:00,
2013-04-15 11:10:00,82.9,62.9,29.58,ESE,112,5.3,-999.0,51,-99.99,,,0.00,Acu-Link.com,2013-04-15 16:10:00,
2013-04-15 11:25:00,85.8,63.2,29.59,South,180,4.2,-999.0,47,-99.99,,,0.00,Acu-Link.com,2013-04-15 16:25:00,
2013-04-15 11:41:00,85.6,61.8,29.58,SW,225,5.8,-999.0,45,-99.99,,,0.00,Acu-Link.com,2013-04-15 16:41:00,
2013-04-15 12:12:00,88.9,63.5,29.57,ESE,112,4.7,-999.0,43,-99.99,,,0.00,Acu-Link.com,2013-04-15 17:12:00,
2013-04-15 12:27:00,88.2,62.8,29.57,SW,225,3.7,-999.0,43,-99.99,,,0.00,Acu-Link.com,2013-04-15 17:27:00,
2013-04-15 12:42:00,90.3,64.1,29.57,NNE,22,4.7,-999.0,42,-99.99,,,0.00,Acu-Link.com,2013-04-15 17:42:00,
2013-04-15 12:57:00,90.7,63.7,29.56,SSW,202,4.7,-999.0,41,-99.99,,,0.00,Acu-Link.com,2013-04-15 17:57:00,
2013-04-15 13:12:00,91.9,64.8,29.55,WSW,247,8.3,-999.0,41,-99.99,,,0.00,Acu-Link.com,2013-04-15 18:12:00,
2013-04-15 13:43:00,93.2,63.8,29.53,South,180,4.7,-999.0,38,-99.99,,,0.00,Acu-Link.com,2013-04-15 18:43:00,
2013-04-15 13:58:00,92.7,63.3,29.53,SW,225,5.3,-999.0,38,-99.99,,,0.00,Acu-Link.com,2013-04-15 18:58:00,
2013-04-15 14:13:00,93.7,64.2,29.53,SSE,157,4.7,-999.0,38,-99.99,,,0.00,Acu-Link.com,2013-04-15 19:13:00,
2013-04-15 14:28:00,91.4,62.2,29.52,SSE,157,5.8,-999.0,38,-99.99,,,0.00,Acu-Link.com,2013-04-15 19:28:00,
2013-04-15 14:43:00,92.5,62.4,29.52,SSE,157,6.3,-999.0,37,-99.99,,,0.00,Acu-Link.com,2013-04-15 19:43:00,
2013-04-15 14:58:00,93.2,62.2,29.51,SE,135,4.7,-999.0,36,-99.99,,,0.00,Acu-Link.com,2013-04-15 19:58:00,
2013-04-15 15:13:00,91.8,61.0,29.50,South,180,5.3,-999.0,36,-99.99,,,0.00,Acu-Link.com,2013-04-15 20:13:00,
2013-04-15 15:28:00,92.8,61.1,29.50,SSW,202,6.8,-999.0,35,-99.99,,,0.00,Acu-Link.com,2013-04-15 20:28:00,
2013-04-15 15:44:00,91.9,61.1,29.51,ENE,67,6.8,-999.0,36,-99.99,,,0.00,Acu-Link.com,2013-04-15 20:44:00,
2013-04-15 15:59:00,93.2,60.6,29.50,SSE,157,11.9,-999.0,34,-99.99,,,0.00,Acu-Link.com,2013-04-15 20:59:00,
2013-04-15 16:14:00,93.2,59.8,29.51,West,270,3.7,-999.0,33,-99.99,,,0.00,Acu-Link.com,2013-04-15 21:14:00,
2013-04-15 16:29:00,92.5,58.3,29.51,SE,135,7.3,-999.0,32,-99.99,,,0.00,Acu-Link.com,2013-04-15 21:29:00,
2013-04-15 16:44:00,92.1,59.7,29.51,SSE,157,7.8,-999.0,34,-99.99,,,0.00,Acu-Link.com,2013-04-15 21:44:00,
2013-04-15 16:59:00,90.3,59.7,29.50,SSE,157,6.8,-999.0,36,-99.99,,,0.00,Acu-Link.com,2013-04-15 21:59:00,
2013-04-15 17:14:00,89.6,61.3,29.50,SSE,157,8.9,-999.0,39,-99.99,,,0.00,Acu-Link.com,2013-04-15 22:14:00,
2013-04-15 17:29:00,90.7,62.3,29.49,SSE,157,8.9,-999.0,39,-99.99,,,0.00,Acu-Link.com,2013-04-15 22:29:00,
2013-04-15 17:44:00,91.8,61.8,29.49,SSE,157,5.8,-999.0,37,-99.99,,,0.00,Acu-Link.com,2013-04-15 22:44:00,
2013-04-15 18:00:00,90.7,59.2,29.48,SSE,157,7.3,-999.0,35,-99.99,,,0.00,Acu-Link.com,2013-04-15 23:00:00,
2013-04-15 18:16:00,90.5,57.4,29.48,SSE,157,8.9,-999.0,33,-99.99,,,0.00,Acu-Link.com,2013-04-15 23:16:00,
2013-04-15 18:31:00,89.6,59.8,29.49,SSE,157,16.1,-999.0,37,-99.99,,,0.00,Acu-Link.com,2013-04-15 23:31:00,
2013-04-15 18:46:00,90.0,58.6,29.48,South,180,10.9,-999.0,35,-99.99,,,0.00,Acu-Link.com,2013-04-15 23:46:00,
2013-04-15 19:01:00,89.8,57.6,29.48,ESE,112,11.9,-999.0,34,-99.99,,,0.00,Acu-Link.com,2013-04-16 00:01:00,
2013-04-15 19:31:00,87.4,57.9,29.49,SE,135,5.3,-999.0,37,-99.99,,,0.00,Acu-Link.com,2013-04-16 00:31:00,
2013-04-15 19:47:00,86.0,58.1,29.50,South,180,7.8,-999.0,39,-99.99,,,0.00,Acu-Link.com,2013-04-16 00:47:00,
2013-04-15 20:02:00,84.7,58.4,29.51,South,180,4.7,-999.0,41,-99.99,,,0.00,Acu-Link.com,2013-04-16 01:02:00,
2013-04-15 20:18:00,83.5,58.0,29.52,South,180,5.8,-999.0,42,-99.99,,,0.00,Acu-Link.com,2013-04-16 01:18:00,
2013-04-15 20:33:00,82.4,58.3,29.52,SSE,157,5.8,-999.0,44,-99.99,,,0.00,Acu-Link.com,2013-04-16 01:33:00,
2013-04-15 20:48:00,82.0,58.5,29.53,South,180,4.7,-999.0,45,-99.99,,,0.00,Acu-Link.com,2013-04-16 01:48:00,
2013-04-15 21:04:00,81.3,59.1,29.53,SSE,157,6.3,-999.0,47,-99.99,,,0.00,Acu-Link.com,2013-04-16 02:04:00,
2013-04-15 21:19:00,80.6,59.6,29.55,SSE,157,4.2,-999.0,49,-99.99,,,0.00,Acu-Link.com,2013-04-16 02:19:00,
2013-04-15 21:34:00,80.1,60.9,29.55,SSE,157,5.3,-999.0,52,-99.99,,,0.00,Acu-Link.com,2013-04-16 02:34:00,
2013-04-15 21:49:00,79.9,61.2,29.56,SSE,157,8.3,-999.0,53,-99.99,,,0.00,Acu-Link.com,2013-04-16 02:49:00,
2013-04-15 22:05:00,79.2,61.6,29.58,ESE,112,4.2,-999.0,55,-99.99,,,0.00,Acu-Link.com,2013-04-16 03:05:00,
2013-04-15 22:20:00,78.6,62.1,29.58,SSE,157,8.3,-999.0,57,-99.99,,,0.00,Acu-Link.com,2013-04-16 03:20:00,
2013-04-15 22:35:00,77.9,61.9,29.58,SE,135,3.7,-999.0,58,-99.99,,,0.00,Acu-Link.com,2013-04-16 03:35:00,
2013-04-15 22:51:00,76.8,61.8,29.58,SSE,157,5.8,-999.0,60,-99.99,,,0.00,Acu-Link.com,2013-04-16 03:51:00,
2013-04-15 23:21:00,75.9,63.7,29.60,SSE,157,4.7,-999.0,66,-99.99,,,0.00,Acu-Link.com,2013-04-16 04:21:00,
2013-04-15 23:36:00,75.4,64.1,29.59,SSE,157,4.2,-999.0,68,-99.99,,,0.00,Acu-Link.com,2013-04-16 04:36:00,
2013-04-15 23:52:00,75.2,64.3,29.60,SSE,157,6.3,-999.0,69,-99.99,,,0.00,Acu-Link.com,2013-04-16 04:52:00,